South Bend, IN

12:06 AM EST on December 11, 2016 (GMT -0500)
South Bend Regional

Weather History for KSBN - March, 2013

Change the Weather History Date:

Thursday, March 21, 2013

  Actual Average Record
Temperature  
Mean Temperature 22 °F 39 °F  
Max Temperature 29 °F 49 °F 85 °F (2012)
Min Temperature 15 °F 30 °F 10 °F (1965)
Degree Days  
Heating Degree Days 43 26  
Month to date heating degree days 717 619  
Since 1 July heating degree days 5114 5308  
Cooling Degree Days 0 0  
Month to date cooling degree days 0 0  
Year to date cooling degree days 0 0  
Moisture  
Dew Point 15 °F    
Average Humidity 73    
Maximum Humidity 92    
Minimum Humidity 53    
Precipitation  
Precipitation 0.11 in 0.08 in 1.37 in (1948)
Month to date precipitation 1.24 1.60  
Year to date precipitation 8.73 5.84  
Snow  
Snow 2.40 in 0.20 in 5.50 in (1924)
Month to date snowfall 12.1 5.8  
Since 1 July snowfall 59.8 63.9  
Snow Depth 3.00 in    
Sea Level Pressure  
Sea Level Pressure 29.99 in    
Wind  
Wind Speed 9 mph (West)    
Max Wind Speed 20 mph    
Max Gust Speed 24 mph    
Visibility 5 miles    
Events Snow    
T = Trace of Precipitation, MM = Missing Value Source: NWS Daily Summary

Daily Weather History Graph

Daily Weather History Graph

Search for Another Location

Airport or City:

Trip Planner

Search our weather history database for the weather conditions in past years. The results will help you decide how hot, cold, wet, or windy it might be!

Date:

Astronomy

Mar. 21, 2013 Rise Set
Actual Time 7:46 AM EDT 7:58 PM EDT
Civil Twilight 7:18 AM EDT 8:26 PM EDT
Nautical Twilight 6:46 AM EDT 8:59 PM EDT
Astronomical Twilight 6:13 AM EDT 9:32 PM EDT
Moon 2:24 PM EDT (3/21) 4:11 AM EDT (3/21)
Length of Visible Light 13h 07m
Length of Day
12h 12m
Waxing Gibbous, 68% of the Moon is Illuminated
Mar 21
Waxing Gibbous
Mar 27
Full
Apr 3
Last Quarter
Apr 10
New
Apr 18
First Quarter

Hourly Weather History & Observations

Time (EDT) Temp. Windchill Dew Point Humidity Pressure Visibility Wind Dir Wind Speed Gust Speed Precip Events Conditions
12:05 AM 19.4 °F 9.5 °F 15.8 °F 86% 29.99 in 1.0 mi NW 8.1 mph - 0.01 in Snow Light Snow
12:22 AM 17.6 °F 5.7 °F 12.2 °F 79% 29.99 in 3.0 mi NW 10.4 mph 18.4 mph 0.01 in Snow Light Snow
12:30 AM 17.6 °F 8.2 °F 12.2 °F 79% 29.99 in 9.0 mi WNW 6.9 mph - 0.01 in   Overcast
12:54 AM 18.0 °F 9.8 °F 10.9 °F 74% 30.02 in 10.0 mi WNW 5.8 mph - 0.01 in   Overcast
1:31 AM 17.6 °F 6.4 °F 12.2 °F 79% 29.98 in 1.5 mi NW 9.2 mph - 0.00 in Snow Light Snow
1:38 AM 17.6 °F 6.4 °F 14.0 °F 86% 29.98 in 1.0 mi NW 9.2 mph - 0.00 in Snow Light Snow
1:54 AM 17.6 °F 8.2 °F 14.0 °F 86% 29.98 in 1.0 mi WNW 6.9 mph - N/A Snow Light Snow
2:03 AM 17.6 °F 9.3 °F 14.0 °F 86% 29.97 in 1.5 mi WNW 5.8 mph - 0.00 in Snow Light Snow
2:12 AM 17.6 °F 9.3 °F 14.0 °F 86% 29.97 in 2.5 mi WNW 5.8 mph - 0.01 in Snow Light Snow
2:27 AM 17.6 °F 9.3 °F 15.8 °F 93% 29.97 in 1.0 mi West 5.8 mph - 0.01 in Snow Light Snow
2:40 AM 17.6 °F 9.3 °F 14.0 °F 86% 29.97 in 3.0 mi WSW 5.8 mph - 0.01 in Snow Light Snow
2:54 AM 17.1 °F 8.7 °F 12.9 °F 84% 30.01 in 4.0 mi West 5.8 mph - 0.01 in Snow Light Snow
3:02 AM 17.6 °F 8.2 °F 14.0 °F 86% 29.97 in 1.8 mi West 6.9 mph - 0.00 in Snow Light Snow
3:31 AM 17.6 °F 8.2 °F 14.0 °F 86% 29.96 in 2.0 mi West 6.9 mph - 0.01 in Snow Light Snow
3:54 AM 19.0 °F 11.1 °F 14.0 °F 81% 30.00 in 0.8 mi West 5.8 mph - 0.01 in Snow Light Snow
4:02 AM 17.6 °F 8.2 °F 14.0 °F 86% 29.96 in 1.0 mi West 6.9 mph - 0.01 in Snow Light Snow
4:08 AM 17.6 °F 7.3 °F 14.0 °F 86% 29.96 in 3.0 mi West 8.1 mph - 0.01 in Snow Light Snow
4:26 AM 15.8 °F 6.1 °F 12.2 °F 86% 29.95 in 5.0 mi West 6.9 mph - 0.01 in Snow Light Snow
4:40 AM 17.6 °F 7.3 °F 14.0 °F 86% 29.95 in 1.8 mi West 8.1 mph - 0.01 in Snow Light Snow
4:50 AM 17.6 °F 7.3 °F 15.8 °F 93% 29.94 in 0.8 mi WSW 8.1 mph - 0.02 in Snow Light Snow
4:54 AM 18.0 °F 7.7 °F 15.1 °F 88% 29.98 in 1.8 mi WSW 8.1 mph - 0.02 in Snow Light Snow
5:01 AM 17.6 °F 7.3 °F 14.0 °F 86% 29.94 in 2.0 mi West 8.1 mph - 0.00 in Snow Light Snow
5:13 AM 19.4 °F 9.5 °F 15.8 °F 86% 29.94 in 1.2 mi WSW 8.1 mph - 0.00 in Snow Light Snow
5:50 AM 17.6 °F 10.7 °F 15.8 °F 93% 29.94 in 0.8 mi WSW 4.6 mph - 0.01 in Snow Light Snow
5:54 AM 18.0 °F 11.1 °F 15.1 °F 88% 29.98 in 0.8 mi WSW 4.6 mph - 0.02 in Snow Light Snow
6:28 AM 19.4 °F 11.5 °F 15.8 °F 86% 29.94 in 0.8 mi SW 5.8 mph - 0.01 in Snow Light Snow
6:33 AM 19.4 °F 11.5 °F 15.8 °F 86% 29.94 in 1.2 mi SW 5.8 mph - 0.01 in Snow Light Snow
6:38 AM 17.6 °F 9.3 °F 15.8 °F 93% 29.94 in 2.5 mi SW 5.8 mph - 0.01 in Snow Light Snow
6:47 AM 17.6 °F 9.3 °F 15.8 °F 93% 29.94 in 3.0 mi SW 5.8 mph - 0.02 in Snow Light Snow
6:54 AM 19.0 °F 11.1 °F 15.1 °F 85% 29.99 in 2.5 mi WSW 5.8 mph - 0.02 in Snow Light Snow
7:01 AM 19.4 °F 11.5 °F 15.8 °F 86% 29.94 in 2.5 mi WSW 5.8 mph - 0.00 in Snow Light Snow
7:27 AM 19.4 °F 9.5 °F 15.8 °F 86% 29.95 in 4.0 mi WSW 8.1 mph - 0.00 in Snow Light Snow
7:36 AM 19.4 °F 9.5 °F 15.8 °F 86% 29.95 in 7.0 mi WSW 8.1 mph - 0.00 in Snow Light Snow
7:54 AM 19.9 °F 12.1 °F 17.1 °F 89% 29.99 in 4.0 mi West 5.8 mph - 0.00 in Snow Light Snow
8:54 AM 21.9 °F 9.8 °F 14.0 °F 72% 30.00 in 10.0 mi WNW 12.7 mph - 0.00 in   Overcast
9:54 AM 24.1 °F 12.5 °F 15.1 °F 69% 30.00 in 10.0 mi WNW 12.7 mph - 0.00 in   Overcast
10:54 AM 24.1 °F 11.5 °F 14.0 °F 65% 30.02 in 10.0 mi WNW 15.0 mph 23.0 mph 0.00 in   Overcast
11:54 AM 25.0 °F 12.6 °F 15.1 °F 66% 30.04 in 10.0 mi WNW 15.0 mph - 0.00 in   Overcast
12:54 PM 25.0 °F 12.6 °F 16.0 °F 69% 30.05 in 9.0 mi West 15.0 mph - 0.00 in Snow Light Snow
1:54 PM 27.0 °F 16.1 °F 15.1 °F 61% 30.06 in 10.0 mi WNW 12.7 mph 19.6 mph 0.00 in   Overcast
2:54 PM 28.0 °F 18.1 °F 16.0 °F 61% 30.04 in 10.0 mi WNW 11.5 mph - N/A   Mostly Cloudy
3:54 PM 27.0 °F 15.2 °F 16.0 °F 63% 30.04 in 10.0 mi NW 15.0 mph - N/A   Overcast
4:54 PM 28.0 °F 18.1 °F 16.0 °F 61% 30.03 in 10.0 mi WNW 11.5 mph - N/A   Mostly Cloudy
5:16 PM 28.4 °F 18.0 °F 15.8 °F 59% 30.00 in 10.0 mi NW 12.7 mph - N/A   Mostly Cloudy
5:54 PM 28.0 °F 17.0 °F 15.1 °F 58% 30.03 in 10.0 mi WNW 13.8 mph - N/A   Partly Cloudy
6:54 PM 28.0 °F 18.6 °F 14.0 °F 56% 30.03 in 10.0 mi NW 10.4 mph - N/A   Clear
7:54 PM 26.1 °F 18.4 °F 14.0 °F 60% 30.03 in 10.0 mi NW 6.9 mph - N/A   Clear
8:54 PM 21.9 °F - 12.0 °F 66% 30.03 in 10.0 mi Calm Calm - N/A   Clear
9:54 PM 21.0 °F 16.2 °F 12.9 °F 71% 30.04 in 10.0 mi WSW 3.5 mph - N/A   Clear
10:54 PM 19.9 °F 14.9 °F 12.9 °F 74% 30.05 in 10.0 mi WSW 3.5 mph - N/A   Clear
11:54 PM 21.0 °F 14.6 °F 14.0 °F 74% 30.05 in 10.0 mi WSW 4.6 mph - N/A   Clear